Frederick, MD

1:39 PM EST on November 23, 2017 (GMT -0500)
Frederick Municipal

Weather History for KFDK - February, 2013

Change the Weather History Date:

Tuesday, February 5, 2013

  Actual Average (KHGR) Record (KHGR)
Temperature  
Mean Temperature 32 °F -  
Max Temperature 37 °F 39 °F 53 °F (2005)
Min Temperature 28 °F 24 °F 3 °F (2007)
Degree Days  
Heating Degree Days 32    
Moisture  
Dew Point 29 °F    
Average Humidity 89    
Maximum Humidity 100    
Minimum Humidity 75    
Precipitation  
Precipitation 0.00 in - - ()
Sea Level Pressure  
Sea Level Pressure 29.92 in    
Wind  
Wind Speed 1 mph (NNE)    
Max Wind Speed 7 mph    
Max Gust Speed -    
Visibility 7 miles    
Events Snow    
Averages and records for this station are not official NWS values.
T = Trace of Precipitation, MM = Missing Value Source: NWS Daily Summary

Daily Weather History Graph

Daily Weather History Graph

Search for Another Location

Airport or City:

Trip Planner

Search our weather history database for the weather conditions in past years. The results will help you decide how hot, cold, wet, or windy it might be!

Date:

Astronomy

Feb. 05, 2013 Rise Set
Actual Time 7:12 AM EST 5:34 PM EST
Civil Twilight 6:44 AM EST 6:02 PM EST
Nautical Twilight 6:12 AM EST 6:34 PM EST
Astronomical Twilight 5:41 AM EST 7:06 PM EST
Moon 2:51 AM EST (2/5) 12:51 PM EST (2/5)
Length of Visible Light 11h 18m
Length of Day
10h 22m
Waning Crescent, 27% of the Moon is Illuminated
Feb 5
Waning Crescent
Feb 10
New
Feb 17
First Quarter
Feb 25
Full
Mar 4
Last Quarter

Hourly Weather History & Observations

Time (EST) Temp. Windchill Dew Point Humidity Pressure Visibility Wind Dir Wind Speed Gust Speed Precip Events Conditions
12:05 AM 32.0 °F - 26.6 °F 80% 29.91 in 10.0 mi Calm Calm - N/A   Overcast
12:25 AM 32.0 °F - 24.8 °F 75% 29.91 in 10.0 mi Calm Calm - N/A   Overcast
12:50 AM 32.0 °F - 26.6 °F 80% 29.91 in 10.0 mi Calm Calm - N/A   Overcast
1:10 AM 32.0 °F - 26.6 °F 80% 29.91 in 10.0 mi Calm Calm - N/A   Overcast
1:30 AM 32.0 °F - 26.6 °F 80% 29.91 in 10.0 mi Calm Calm - N/A   Overcast
1:50 AM 32.0 °F - 28.4 °F 87% 29.90 in 10.0 mi Calm Calm - N/A   Overcast
2:15 AM 32.0 °F - 26.6 °F 80% 29.90 in 10.0 mi Calm Calm - N/A   Overcast
2:35 AM 32.0 °F - 26.6 °F 80% 29.89 in 10.0 mi Calm Calm - N/A   Overcast
2:55 AM 32.0 °F - 28.4 °F 87% 29.89 in 10.0 mi Calm Calm - N/A   Overcast
3:15 AM 32.0 °F - 26.6 °F 80% 29.89 in 10.0 mi Calm Calm - N/A   Overcast
3:40 AM 32.0 °F - 26.6 °F 80% 29.89 in 10.0 mi Calm Calm - N/A   Overcast
4:00 AM 32.0 °F - 26.6 °F 80% 29.89 in 10.0 mi Calm Calm - N/A   Overcast
4:20 AM 32.0 °F 27.5 °F 26.6 °F 80% 29.89 in 10.0 mi North 4.6 mph - N/A   Overcast
4:45 AM 32.0 °F 28.7 °F 28.4 °F 87% 29.89 in 10.0 mi NNE 3.5 mph - N/A   Overcast
5:05 AM 32.0 °F - 28.4 °F 87% 29.89 in 7.0 mi Calm Calm - N/A Snow Light Snow
5:25 AM 32.0 °F 27.5 °F 28.4 °F 87% 29.90 in 10.0 mi North 4.6 mph - N/A   Overcast
5:45 AM 32.0 °F 28.7 °F 28.4 °F 87% 29.90 in 10.0 mi North 3.5 mph - N/A   Overcast
5:50 AM 32.0 °F 28.7 °F 28.4 °F 87% 29.91 in 10.0 mi North 3.5 mph - N/A   Overcast
6:48 AM 30.2 °F 23.4 °F 28.4 °F 93% 29.92 in 10.0 mi NNE 6.9 mph - N/A   Overcast
8:48 AM 32.0 °F 25.6 °F 28.4 °F 87% 29.95 in 7.0 mi NNE 6.9 mph - N/A   Overcast
9:50 AM 33.8 °F 30.8 °F 28.4 °F 81% - 7.0 mi NNE 3.5 mph - N/A   Overcast
10:50 AM - - - N/A% - 7.0 mi NNE 5.8 mph - N/A   Overcast
12:45 PM 37.4 °F - 30.2 °F 75% 29.91 in 7.0 mi Calm Calm - N/A   Overcast
1:50 PM 37.4 °F - 30.2 °F 75% 29.88 in 7.0 mi Calm Calm - N/A   Overcast
2:50 PM 37.4 °F 33.8 °F 30.2 °F 75% 29.88 in 7.0 mi North 4.6 mph - N/A   Overcast
4:56 PM 33.8 °F 30.8 °F 33.8 °F 100% 29.90 in 4.0 mi Variable 3.5 mph - N/A   Overcast
5:49 PM 32.0 °F - 32.0 °F 100% 29.90 in 4.0 mi Calm Calm - N/A   Scattered Clouds
6:50 PM 28.4 °F - 28.4 °F 100% 29.91 in 4.0 mi Calm Calm - N/A   Scattered Clouds
7:53 PM 28.4 °F - 28.4 °F 100% 29.92 in 4.0 mi Calm Calm - N/A   Overcast
8:00 PM 30.2 °F - 30.2 °F 100% 29.92 in 2.0 mi Calm Calm - N/A   Overcast
8:20 PM 30.2 °F - 30.2 °F 100% 29.92 in 1.2 mi Calm Calm - N/A   Scattered Clouds
8:40 PM 28.4 °F - 28.4 °F 100% 29.93 in 1.8 mi Calm Calm - N/A   Scattered Clouds
9:00 PM 30.2 °F - 30.2 °F 100% 29.93 in 1.5 mi Calm Calm - N/A   Overcast
9:25 PM 30.2 °F - 30.2 °F 100% 29.94 in 1.8 mi Calm Calm - N/A   Overcast
9:45 PM 30.2 °F - 30.2 °F 100% 29.96 in 2.0 mi Calm Calm - N/A   Overcast
10:05 PM 30.2 °F - 30.2 °F 100% 29.95 in 2.5 mi Calm Calm - N/A   Overcast
10:25 PM 32.0 °F - 32.0 °F 100% 29.96 in 3.0 mi Calm Calm - N/A   Overcast
10:50 PM 32.0 °F - 32.0 °F 100% 29.96 in 3.0 mi Calm Calm - N/A   Overcast
11:10 PM 32.0 °F 28.7 °F 32.0 °F 100% 29.96 in 2.5 mi SE 3.5 mph - N/A   Overcast
11:30 PM 32.0 °F 28.7 °F 32.0 °F 100% 29.96 in 3.0 mi SE 3.5 mph - N/A   Overcast
11:50 PM 32.0 °F 28.7 °F 32.0 °F 100% 29.96 in 3.0 mi ENE 3.5 mph - N/A   Overcast